Regional Weather Roundup
Issued by NWS

Home | Current Version | Previous Version | Text Only | Print | Product List | Glossary On
Versions: 1 2 3 4 5 6 7 8 9 10 11 12 13 14 15 16 17 18 19 20 21 22 23 24 25 26 27 28
000
ASUS44 KBMX 252110
RWRAL

ALABAMA REGIONAL WEATHER ROUNDUP
NATIONAL WEATHER SERVICE BIRMINGHAM AL
300 PM CST SAT FEB 25 2017

NOTE: "FAIR" INDICATES FEW OR NO CLOUDS BELOW 12,000 FEET
WITH NO SIGNIFICANT WEATHER AND/OR OBSTRUCTIONS TO VISIBILITY.

THE REMARK "TC" DENOTES TEMPERATURE IN DEGREES CELSIUS.

ALZ001>011-014-016>018-020-252200-
NORTH ALABAMA

CITY           SKY/WX    TMP DP  RH WIND       PRES   REMARKS
MUSCLE SHOALS  SUNNY     51  21  30 NW10G22   30.06R
HUNTSVILLE     SUNNY     52  26  36 NW14G20   30.02R
DECATUR        SUNNY     51  24  34 W17       30.03R
HALEYVILLE     FAIR      51  21  30 W13G21    30.05R
GADSDEN        SUNNY     56  24  29 NW15G22   29.99R
$$

ALZ012-013-022-023-030>036-040>044-252200-
WEST CENTRAL ALABAMA

CITY           SKY/WX    TMP DP  RH WIND       PRES   REMARKS
TUSCALOOSA     SUNNY     58  24  27 NW14G25   30.05R
$$

ALZ015-024>027-033>036-040>044-252200-
CENTRAL ALABAMA

CITY           SKY/WX    TMP DP  RH WIND       PRES   REMARKS
BIRMINGHAM     SUNNY     58  14  17 NW13      30.02R
MONTGOMERY     SUNNY     68  22  17 W14G25    29.96R
SHELBY CO ARPT SUNNY     60  24  25 NW16G22   30.00R
MAXWELL AFB    SUNNY     66  25  21 NW10G21   29.95S
GREENVILLE     FAIR      66  23  19 NW14G23   29.96R
$$

ALZ019-021-028-029-037-038-045>048-252200-
EAST CENTRAL ALABAMA

CITY           SKY/WX    TMP DP  RH WIND       PRES   REMARKS
ANNISTON       SUNNY     60  14  16 W10G21    29.97R
ALEXANDER CITY SUNNY     62  22  21 NW13G21   29.96R
AUBURN         SUNNY     65  23  20 W10       29.94R
$$

ALZ051>064-252200-
SOUTHWEST ALABAMA

CITY           SKY/WX    TMP DP  RH WIND       PRES   REMARKS
MOBILE         MOSUNNY   70  25  18 N12       30.00R
BROOKLEY FIELD SUNNY     72  28  19 NW12G22   30.00R
EVERGREEN      SUNNY     70  26  19 NW10G20   29.97S
$$

ALZ049-050-065>069-252200-
SOUTHEAST ALABAMA

CITY           SKY/WX    TMP DP  RH WIND       PRES   REMARKS
DOTHAN         SUNNY     73  24  16 NW15      29.94R
OZARK          SUNNY     74  21  14 NW12G24   29.92R
TROY           SUNNY     69  25  19 NW8G21    29.95R
EUFAULA        FAIR      73  19  13 W14G21    29.90R
$$




USA.gov is the U.S. government's official web portal to all federal, state and local government web resources and services.